Tracking 20232 objects as of 21-Jan-2020
HD Live streaming from Space Station
objects crossing your sky now

OSCAR 29

Track OSCAR 29 now!
10-day predictions
OSCAR 29 is classified as:


NORAD ID: 18362
Int'l Code: 1987-080B
Perigee: 1,023.2 km
Apogee: 1,179.3 km
Inclination: 90.3 °
Period: 107.1 minutes
Semi major axis: 7472 km
RCS: 1.4883 m2 (large)
Launch date: September 16, 1987
Source: United States (US)
Launch site: AIR FORCE WESTERN TEST RANGE (AFWTR)
aabbcc
Your satellite tracking list
Your tracking list is empty




NASA's NSSDC Master Catalog

Two Line Element Set (TLE):
1 18362U 87080B   20021.06153878 -.00000008 +00000-0 -25436-4 0  9990
2 18362 090.3159 006.3433 0104461 286.5944 114.6665 13.44083759585902
Source of the keplerian elements: AFSPC